sat.trackr.live / text

‹ back to catalog

STARLINK-37539

NORAD 68845 · 2026-094G

PAYLOAD ACTIVE UNKNOWN

§ Identity

Operator
Country
US
Launch date
2026-04-26
Launch site
AFWTR
Launch vehicle
Mass (kg)
RCS (m²)

Purposes: comms

External: N2YO · Heavens-Above · Gunter

§ Orbital elements

Epoch: 2026-09-20T00:42:56.807424Z

Period
93.91 min
Inclination
97.2845°
Eccentricity
0.0001614
Mean motion
15.33443986 rev/d
Perigee alt
464.4 km
Apogee alt
466.7 km
Semi-major
6,843.7 km
B*
1.3958e-4
RAAN
276.1287°
Arg perigee
92.7608°
Mean anomaly
267.3819°
Rev number
2,258

§ Raw data

STARLINK-375391 68845U 26094G   26263.02982416  .00004434  00000+0  13958-3 0  99962 68845  97.2845 276.1287 0001614  92.7608 267.3819 15.33443986 22584

JSON: /api/v1/satellites/68845 · /tle

For live sub-satellite position, see the globe view (requires WebGL).

§ Visibility from observer

Set your observer location to see the next 7 days of passes ≥ 10°. The values pass through the URL so the page stays shareable.

No JS? Fill the form by hand. The geolocation button needs JavaScript.